| time (UTC) | temp C | wind direction | speed KPH | gust KPH | rain 1hr cm | rain 24hr cm | rain mn cm | humidity % | barometer mb |
| 20260906090054 | 16 | 0 | 1.6 | 4.8 | 0.00 | 2.64 | 0.00 | 91 | 1022.9 |
| 20260906085536 | 16 | 0 | 1.6 | 6.4 | 0.00 | 2.64 | 0.00 | 91 | 1022.8 |
| 20260906085036 | 16 | 264 | 1.6 | 6.4 | 0.00 | 2.64 | 0.00 | 91 | 1022.8 |
| 20260906084547 | 16 | 259 | 3.2 | 4.8 | 0.00 | 2.64 | 0.00 | 91 | 1022.8 |
| 20260906084038 | 16 | 268 | 1.6 | 4.8 | 0.00 | 2.64 | 0.00 | 92 | 1022.8 |
| 20260906083535 | 15 | 268 | 1.6 | 4.8 | 0.00 | 2.64 | 0.00 | 93 | 1022.8 |
| 20260906083059 | 15 | 0 | 0.0 | 3.2 | 0.00 | 2.64 | 0.00 | 93 | 1022.9 |
| 20260906082534 | 15 | 268 | 0.0 | 3.2 | 0.00 | 2.64 | 0.00 | 93 | 1022.8 |
| 20260906082034 | 16 | 268 | 0.0 | 3.2 | 0.00 | 2.64 | 0.00 | 94 | 1022.8 |
| 20260906081558 | 16 | 268 | 0.0 | 3.2 | 0.00 | 2.64 | 0.00 | 94 | 1022.8 |
| 20260906081038 | 16 | 268 | 0.0 | 3.2 | 0.00 | 2.64 | 0.00 | 93 | 1022.9 |
| 20260906080539 | 16 | 268 | 1.6 | 4.8 | 0.00 | 2.64 | 0.00 | 93 | 1022.9 |
| 20260906080056 | 16 | 262 | 1.6 | 4.8 | 0.00 | 2.64 | 0.00 | 94 | 1022.9 |
| 20260906075535 | 16 | 262 | 1.6 | 4.8 | 0.00 | 2.64 | 0.00 | 94 | 1022.9 |
| 20260906075036 | 16 | 312 | 1.6 | 3.2 | 0.00 | 2.64 | 0.00 | 95 | 1022.9 |
| 20260906074548 | 15 | 312 | 0.0 | 3.2 | 0.00 | 2.64 | 0.00 | 93 | 1022.9 |
| 20260906074035 | 15 | 312 | 0.0 | 1.6 | 0.00 | 2.64 | 0.00 | 93 | 1022.9 |
| 20260906073535 | 16 | 312 | 0.0 | 1.6 | 0.00 | 2.64 | 0.00 | 93 | 1022.9 |
| 20260906073059 | 16 | 0 | 0.0 | 0.0 | 0.00 | 2.64 | 0.00 | 93 | 1022.8 |
| 20260906072535 | 16 | 0 | 0.0 | 1.6 | 0.00 | 2.64 | 0.00 | 92 | 1022.8 |
| 20260906072035 | 16 | 0 | 0.0 | 1.6 | 0.00 | 2.64 | 0.00 | 92 | 1023.0 |
| 20260906071556 | 16 | 0 | 0.0 | 1.6 | 0.00 | 2.64 | 0.00 | 92 | 1023.0 |
| 20260906071035 | 15 | 0 | 0.0 | 1.6 | 0.00 | 2.64 | 0.00 | 92 | 1023.0 |
| 20260906070538 | 15 | 0 | 0.0 | 0.0 | 0.00 | 2.64 | 0.00 | 91 | 1023.1 |
| 20260906070055 | 15 | 0 | 0.0 | 0.0 | 0.00 | 2.64 | 0.00 | 91 | 1023.0 |
| 20260906065535 | 15 | 0 | 0.0 | 0.0 | 0.00 | 2.64 | 0.00 | 92 | 1023.0 |
| 20260906065038 | 15 | 0 | 0.0 | 1.6 | 0.00 | 2.64 | 0.00 | 91 | 1023.1 |
| 20260906064548 | 15 | 0 | 0.0 | 1.6 | 0.00 | 2.64 | 0.00 | 92 | 1023.1 |
| 20260906064035 | 15 | 0 | 0.0 | 1.6 | 0.00 | 2.64 | 0.00 | 93 | 1023.3 |
| 20260906063534 | 15 | 0 | 0.0 | 1.6 | 0.00 | 2.64 | 0.00 | 93 | 1023.3 |
| 20260906063058 | 15 | 0 | 0.0 | 1.6 | 0.00 | 2.64 | 0.00 | 94 | 1023.2 |
| 20260906062534 | 15 | 0 | 0.0 | 0.0 | 0.00 | 2.64 | 0.00 | 95 | 1023.2 |
| 20260906062035 | 15 | 0 | 0.0 | 0.0 | 0.00 | 2.64 | 0.00 | 95 | 1023.2 |
| 20260906061608 | 16 | 0 | 0.0 | 0.0 | 0.00 | 2.64 | 0.00 | 96 | 1023.2 |
| 20260906061041 | 16 | 0 | 0.0 | 0.0 | 0.00 | 2.64 | 0.00 | 96 | 1023.3 |
| 20260906060538 | 16 | 0 | 0.0 | 0.0 | 0.00 | 2.64 | 0.00 | 96 | 1023.4 |
| 20260906060100 | 16 | 0 | 0.0 | 0.0 | 0.00 | 2.64 | 0.00 | 97 | 1023.4 |
| 20260906055535 | 16 | 0 | 0.0 | 0.0 | 0.00 | 2.64 | 0.00 | 97 | 1023.5 |
| 20260906055035 | 16 | 0 | 0.0 | 0.0 | 0.00 | 2.64 | 0.00 | 97 | 1023.6 |
| 20260906054549 | 16 | 0 | 0.0 | 0.0 | 0.00 | 2.64 | 0.00 | 96 | 1023.6 |
| 20260906054035 | 16 | 0 | 0.0 | 0.0 | 0.00 | 2.64 | 0.00 | 96 | 1023.8 |
| 20260906053537 | 16 | 0 | 0.0 | 0.0 | 0.00 | 2.64 | 0.00 | 96 | 1023.8 |
| 20260906053048 | 16 | 0 | 0.0 | 0.0 | 0.00 | 2.64 | 0.00 | 96 | 1023.9 |
| 20260906052537 | 16 | 0 | 0.0 | 0.0 | 0.00 | 2.64 | 0.00 | 96 | 1024.0 |
| 20260906052037 | 16 | 0 | 0.0 | 0.0 | 0.00 | 2.64 | 0.00 | 96 | 1024.1 |
| 20260906051604 | 16 | 0 | 0.0 | 0.0 | 0.00 | 2.64 | 0.00 | 97 | 1024.0 |
| 20260906051036 | 16 | 0 | 0.0 | 0.0 | 0.00 | 2.64 | 0.00 | 96 | 1024.1 |
| 20260906050536 | 16 | 0 | 0.0 | 1.6 | 0.00 | 2.64 | 0.00 | 96 | 1024.2 |
| 20260906050056 | 16 | 0 | 0.0 | 1.6 | 0.00 | 2.64 | 0.00 | 96 | 1024.2 |
| 20260906045537 | 16 | 0 | 0.0 | 3.2 | 0.00 | 2.64 | 0.00 | 97 | 1024.2 |
| 20260906045037 | 16 | 0 | 0.0 | 3.2 | 0.00 | 2.64 | 0.00 | 96 | 1024.2 |
| 20260906044548 | 16 | 0 | 0.0 | 3.2 | 0.00 | 2.64 | 0.00 | 96 | 1024.2 |
| 20260906044036 | 16 | 312 | 0.0 | 3.2 | 0.00 | 2.64 | 0.00 | 96 | 1024.4 |
| 20260906043536 | 16 | 0 | 0.0 | 3.2 | 0.00 | 2.64 | 0.00 | 96 | 1024.4 |
| 20260906043056 | 17 | 0 | 0.0 | 3.2 | 0.00 | 2.64 | 0.00 | 96 | 1024.4 |
| 20260906042536 | 17 | 0 | 0.0 | 3.2 | 0.00 | 2.64 | 0.00 | 96 | 1024.2 |
| 20260906042036 | 17 | 5 | 0.0 | 3.2 | 0.00 | 2.64 | 0.00 | 96 | 1024.2 |
| 20260906041556 | 17 | 0 | 0.0 | 3.2 | 0.00 | 2.64 | 0.00 | 96 | 1024.4 |
| 20260906041038 | 17 | 0 | 0.0 | 4.8 | 0.00 | 2.64 | 0.00 | 96 | 1024.4 |
| 20260906040536 | 17 | 0 | 0.0 | 6.4 | 0.00 | 2.64 | 0.00 | 96 | 1024.4 |
| 20260906040053 | 17 | 130 | 0.0 | 6.4 | 0.00 | 2.64 | 0.00 | 96 | 1024.4 |
| 20260906035539 | 16 | 336 | 1.6 | 4.8 | 0.00 | 2.64 | 2.64 | 96 | 1024.4 |
| 20260906035037 | 16 | 0 | 0.0 | 4.8 | 0.00 | 2.64 | 2.64 | 96 | 1024.3 |
| 20260906034605 | 16 | 0 | 0.0 | 8.0 | 0.00 | 2.64 | 2.64 | 96 | 1024.2 |
| 20260906034036 | 16 | 0 | 0.0 | 8.0 | 0.00 | 2.64 | 2.64 | 96 | 1024.2 |
| 20260906033536 | 16 | 329 | 0.0 | 8.0 | 0.00 | 2.64 | 2.64 | 96 | 1024.4 |
| 20260906033058 | 16 | 0 | 0.0 | 1.6 | 0.00 | 2.64 | 2.64 | 96 | 1024.5 |
| 20260906032537 | 16 | 0 | 0.0 | 1.6 | 0.00 | 2.64 | 2.64 | 96 | 1024.5 |
| 20260906032036 | 16 | 0 | 0.0 | 3.2 | 0.00 | 2.64 | 2.64 | 96 | 1024.5 |
| 20260906031555 | 16 | 0 | 0.0 | 3.2 | 0.00 | 2.64 | 2.64 | 96 | 1024.5 |
| 20260906031037 | 16 | 344 | 0.0 | 1.6 | 0.00 | 2.64 | 2.64 | 96 | 1024.5 |
| 20260906030536 | 16 | 0 | 0.0 | 3.2 | 0.00 | 2.64 | 2.64 | 95 | 1024.4 |
| 20260906030100 | 16 | 0 | 0.0 | 3.2 | 0.00 | 2.64 | 2.64 | 95 | 1024.5 |
| 20260906025537 | 17 | 0 | 0.0 | 3.2 | 0.00 | 2.64 | 2.64 | 95 | 1024.4 |
| 20260906025037 | 17 | 0 | 0.0 | 3.2 | 0.00 | 2.64 | 2.64 | 95 | 1024.4 |
| 20260906024559 | 17 | 0 | 0.0 | 3.2 | 0.00 | 2.64 | 2.64 | 95 | 1024.3 |
| 20260906024039 | 17 | 267 | 0.0 | 4.8 | 0.00 | 2.64 | 2.64 | 95 | 1024.2 |
| 20260906023537 | 17 | 0 | 0.0 | 4.8 | 0.00 | 2.64 | 2.64 | 95 | 1024.2 |
| 20260906023103 | 17 | 352 | 0.0 | 4.8 | 0.00 | 2.64 | 2.64 | 95 | 1024.2 |
| 20260906022537 | 17 | 0 | 0.0 | 4.8 | 0.00 | 2.64 | 2.64 | 94 | 1024.3 |
| 20260906022039 | 17 | 0 | 0.0 | 9.7 | 0.00 | 2.64 | 2.64 | 94 | 1024.2 |
| 20260906021558 | 17 | 108 | 1.6 | 9.7 | 0.00 | 2.64 | 2.64 | 94 | 1024.0 |
| 20260906021037 | 17 | 330 | 1.6 | 9.7 | 0.00 | 2.64 | 2.64 | 94 | 1023.9 |
| 20260906020537 | 17 | 157 | 1.6 | 4.8 | 0.00 | 2.64 | 2.64 | 94 | 1024.0 |
| 20260906020057 | 17 | 209 | 1.6 | 4.8 | 0.00 | 2.64 | 2.64 | 94 | 1023.8 |
| 20260906015537 | 17 | 153 | 0.0 | 4.8 | 0.00 | 2.64 | 2.64 | 94 | 1023.7 |
| 20260906015036 | 17 | 165 | 0.0 | 3.2 | 0.00 | 2.64 | 2.64 | 93 | 1023.9 |
| 20260906014555 | 17 | 155 | 0.0 | 8.0 | 0.00 | 2.64 | 2.64 | 93 | 1023.9 |
| 20260906014038 | 17 | 123 | 0.0 | 8.0 | 0.00 | 2.64 | 2.64 | 93 | 1024.0 |
| 20260906013537 | 17 | 215 | 1.6 | 4.8 | 0.00 | 2.64 | 2.64 | 93 | 1024.0 |
| 20260906013100 | 17 | 0 | 0.0 | 4.8 | 0.00 | 2.64 | 2.64 | 93 | 1023.9 |
| 20260906012539 | 17 | 0 | 0.0 | 6.4 | 0.00 | 2.64 | 2.64 | 93 | 1023.8 |
| 20260906012038 | 17 | 137 | 1.6 | 16.1 | 0.00 | 2.64 | 2.64 | 92 | 1023.6 |
| 20260906011606 | 17 | 150 | 1.6 | 16.1 | 0.00 | 2.64 | 2.64 | 92 | 1023.7 |
| 20260906011039 | 17 | 333 | 3.2 | 9.7 | 0.00 | 2.64 | 2.64 | 93 | 1023.6 |
| 20260906010537 | 17 | 0 | 3.2 | 9.7 | 0.00 | 2.64 | 2.64 | 94 | 1023.6 |
| 20260906010059 | 17 | 340 | 1.6 | 6.4 | 0.00 | 2.64 | 2.64 | 94 | 1023.8 |
| 20260906005536 | 17 | 0 | 1.6 | 6.4 | 0.00 | 2.64 | 2.64 | 95 | 1023.9 |
| 20260906005036 | 17 | 172 | 0.0 | 4.8 | 0.00 | 2.64 | 2.64 | 95 | 1024.0 |
| 20260906004555 | 17 | 0 | 0.0 | 3.2 | 0.00 | 2.64 | 2.64 | 95 | 1024.1 |
| 20260906004037 | 17 | 0 | 0.0 | 3.2 | 0.00 | 2.64 | 2.64 | 94 | 1024.2 |
| 20260906003536 | 17 | 5 | 0.0 | 4.8 | 0.00 | 2.64 | 2.64 | 95 | 1024.2 |
| 20260906003101 | 17 | 140 | 0.0 | 4.8 | 0.00 | 2.64 | 2.64 | 95 | 1024.2 |
| 20260906002537 | 17 | 183 | 1.6 | 8.0 | 0.00 | 2.64 | 2.64 | 95 | 1024.0 |
| 20260906002037 | 17 | 0 | 0.0 | 8.0 | 0.00 | 2.64 | 2.64 | 95 | 1024.0 |
| 20260906001559 | 17 | 163 | 1.6 | 4.8 | 0.00 | 2.64 | 2.64 | 95 | 1023.9 |
| 20260906001038 | 17 | 0 | 0.0 | 8.0 | 0.00 | 2.64 | 2.64 | 96 | 1024.0 |
| 20260906000537 | 17 | 0 | 3.2 | 8.0 | 0.00 | 2.64 | 2.64 | 96 | 1023.9 |
| 20260906000058 | 17 | 128 | 1.6 | 8.0 | 0.00 | 2.64 | 2.64 | 96 | 1023.8 |
| 20260905235536 | 17 | 136 | 1.6 | 6.4 | 0.00 | 2.64 | 2.64 | 96 | 1023.8 |
| 20260905235036 | 17 | 0 | 1.6 | 6.4 | 0.00 | 2.64 | 2.64 | 96 | 1023.9 |
| 20260905234554 | 17 | 328 | 0.0 | 4.8 | 0.00 | 2.64 | 2.64 | 96 | 1023.8 |
| 20260905234037 | 17 | 0 | 0.0 | 6.4 | 0.00 | 2.64 | 2.64 | 96 | 1023.8 |
| 20260905233537 | 17 | 0 | 0.0 | 6.4 | 0.00 | 2.64 | 2.64 | 96 | 1023.7 |
| 20260905233116 | 17 | 0 | 0.0 | 3.2 | 0.00 | 2.64 | 2.64 | 95 | 1023.7 |
| 20260905232536 | 17 | 138 | 0.0 | 3.2 | 0.00 | 2.64 | 2.64 | 95 | 1023.8 |
| 20260905232035 | 17 | 138 | 0.0 | 4.8 | 0.00 | 2.64 | 2.64 | 96 | 1023.6 |
| 20260905231558 | 17 | 127 | 1.6 | 6.4 | 0.00 | 2.64 | 2.64 | 95 | 1023.6 |
| 20260905231038 | 17 | 65 | 1.6 | 6.4 | 0.00 | 2.64 | 2.64 | 95 | 1023.4 |
| 20260905230534 | 17 | 0 | 0.0 | 8.0 | 0.00 | 2.64 | 2.64 | 95 | 1023.4 |
| 20260905230059 | 18 | 349 | 0.0 | 8.0 | 0.00 | 2.64 | 2.64 | 95 | 1023.4 |
| 20260905225535 | 18 | 133 | 1.6 | 8.0 | 0.00 | 2.64 | 2.64 | 95 | 1023.3 |
| 20260905225034 | 18 | 215 | 3.2 | 6.4 | 0.00 | 2.64 | 2.64 | 95 | 1023.4 |
| 20260905224548 | 18 | 0 | 0.0 | 3.2 | 0.00 | 2.64 | 2.64 | 95 | 1023.4 |
| 20260905224035 | 18 | 334 | 0.0 | 8.0 | 0.00 | 2.64 | 2.64 | 95 | 1023.4 |
| 20260905223536 | 18 | 256 | 1.6 | 8.0 | 0.00 | 2.64 | 2.64 | 95 | 1023.4 |
| 20260905223057 | 17 | 0 | 3.2 | 8.0 | 0.00 | 2.64 | 2.64 | 96 | 1023.4 |
| 20260905222536 | 17 | 74 | 0.0 | 3.2 | 0.00 | 2.64 | 2.64 | 95 | 1023.4 |
| 20260905222035 | 17 | 30 | 0.0 | 4.8 | 0.00 | 2.64 | 2.64 | 95 | 1023.5 |
| 20260905221554 | 17 | 0 | 0.0 | 4.8 | 0.00 | 2.64 | 2.64 | 95 | 1023.6 |
| 20260905221034 | 17 | 0 | 0.0 | 6.4 | 0.00 | 2.64 | 2.64 | 94 | 1023.5 |
| 20260905220535 | 17 | 248 | 3.2 | 6.4 | 0.00 | 2.64 | 2.64 | 94 | 1023.5 |
| 20260905220051 | 17 | 0 | 1.6 | 6.4 | 0.00 | 2.64 | 2.64 | 94 | 1023.6 |
| 20260905215534 | 17 | 277 | 3.2 | 11.3 | 0.00 | 2.64 | 2.64 | 94 | 1023.6 |
| 20260905215036 | 17 | 267 | 3.2 | 11.3 | 0.00 | 2.64 | 2.64 | 94 | 1023.7 |
| 20260905214545 | 17 | 279 | 4.8 | 12.9 | 0.00 | 2.64 | 2.64 | 93 | 1023.8 |
| 20260905214035 | 17 | 298 | 3.2 | 12.9 | 0.00 | 2.64 | 2.64 | 93 | 1023.7 |
| 20260905213535 | 17 | 9 | 1.6 | 6.4 | 0.00 | 2.64 | 2.64 | 93 | 1023.7 |
| 20260905213100 | 17 | 0 | 0.0 | 4.8 | 0.00 | 2.64 | 2.64 | 94 | 1023.9 |
| 20260905212535 | 17 | 0 | 1.6 | 6.4 | 0.00 | 2.64 | 2.64 | 95 | 1024.0 |
| 20260905212040 | 17 | 269 | 1.6 | 6.4 | 0.00 | 2.64 | 2.64 | 95 | 1024.0 |
| 20260905211607 | 17 | 288 | 3.2 | 8.0 | 0.00 | 2.64 | 2.64 | 95 | 1024.0 |
| 20260905211034 | 17 | 246 | 3.2 | 8.0 | 0.00 | 2.64 | 2.64 | 96 | 1024.1 |
| 20260905210535 | 17 | 237 | 1.6 | 9.7 | 0.00 | 2.64 | 2.64 | 97 | 1024.2 |
| 20260905210112 | 17 | 268 | 1.6 | 11.3 | 0.00 | 2.64 | 2.64 | 97 | 1024.3 |
| 20260905205538 | 17 | 257 | 4.8 | 11.3 | 0.00 | 2.64 | 2.64 | 98 | 1024.4 |
| 20260905205035 | 16 | 267 | 3.2 | 6.4 | 0.00 | 2.64 | 2.64 | 98 | 1024.4 |
| 20260905204558 | 16 | 352 | 1.6 | 6.4 | 0.00 | 2.64 | 2.64 | 98 | 1024.5 |
| 20260905204034 | 16 | 259 | 1.6 | 6.4 | 0.00 | 2.64 | 2.64 | 98 | 1024.5 |
| 20260905203536 | 16 | 262 | 3.2 | 6.4 | 0.00 | 2.64 | 2.64 | 98 | 1024.4 |
| 20260905203055 | 16 | 265 | 3.2 | 4.8 | 0.00 | 2.64 | 2.64 | 98 | 1024.5 |
| 20260905202536 | 16 | 280 | 1.6 | 3.2 | 0.00 | 2.64 | 2.64 | 98 | 1024.4 |
| 20260905202036 | 16 | 280 | 0.0 | 3.2 | 0.00 | 2.64 | 2.64 | 98 | 1024.5 |
| 20260905201553 | 16 | 0 | 0.0 | 1.6 | 0.00 | 2.64 | 2.64 | 98 | 1024.5 |
| 20260905201037 | 15 | 0 | 0.0 | 1.6 | 0.00 | 2.64 | 2.64 | 98 | 1024.5 |
| 20260905200538 | 15 | 0 | 0.0 | 1.6 | 0.00 | 2.64 | 2.64 | 98 | 1024.5 |
| 20260905200055 | 15 | 0 | 0.0 | 3.2 | 0.00 | 2.64 | 2.64 | 97 | 1024.7 |
| 20260905195538 | 15 | 0 | 0.0 | 6.4 | 0.00 | 2.64 | 2.64 | 97 | 1024.7 |
| 20260905195036 | 15 | 0 | 1.6 | 6.4 | 0.03 | 2.64 | 2.64 | 97 | 1024.7 |
| 20260905194558 | 15 | 262 | 3.2 | 9.7 | 0.05 | 2.64 | 2.64 | 97 | 1024.7 |
| 20260905194037 | 15 | 282 | 4.8 | 9.7 | 0.10 | 2.64 | 2.64 | 97 | 1024.6 |
| 20260905193536 | 15 | 263 | 4.8 | 9.7 | 0.18 | 2.64 | 2.64 | 97 | 1024.5 |
| 20260905193055 | 15 | 265 | 4.8 | 9.7 | 0.25 | 2.64 | 2.64 | 97 | 1024.5 |
| 20260905192536 | 15 | 264 | 4.8 | 6.4 | 0.30 | 2.64 | 2.64 | 96 | 1024.4 |
| 20260905192037 | 15 | 262 | 3.2 | 6.4 | 0.33 | 2.64 | 2.64 | 96 | 1024.4 |
| 20260905191552 | 15 | 271 | 1.6 | 6.4 | 0.36 | 2.64 | 2.64 | 96 | 1024.3 |
| 20260905191036 | 16 | 273 | 3.2 | 6.4 | 0.36 | 2.64 | 2.64 | 95 | 1024.5 |
| 20260905190536 | 16 | 300 | 1.6 | 6.4 | 0.36 | 2.64 | 2.64 | 95 | 1024.4 |
| 20260905190058 | 16 | 312 | 1.6 | 6.4 | 0.36 | 2.64 | 2.64 | 96 | 1024.2 |
| 20260905185537 | 16 | 306 | 1.6 | 12.9 | 0.36 | 2.64 | 2.64 | 96 | 1024.7 |
| 20260905185036 | 16 | 326 | 3.2 | 12.9 | 0.33 | 2.62 | 2.62 | 96 | 1024.7 |
| 20260905184550 | 17 | 306 | 3.2 | 9.7 | 0.30 | 2.59 | 2.59 | 96 | 1024.9 |
| 20260905184036 | 17 | 182 | 3.2 | 27.4 | 0.23 | 2.51 | 2.51 | 95 | 1024.7 |
| 20260905183537 | 17 | 0 | 4.8 | 27.4 | 0.18 | 2.46 | 2.46 | 95 | 1024.8 |
| 20260905183115 | 17 | 240 | 6.4 | 27.4 | 0.10 | 2.39 | 2.39 | 95 | 1024.7 |
| 20260905182536 | 18 | 109 | 6.4 | 24.1 | 0.05 | 2.34 | 2.34 | 95 | 1024.9 |
| 20260905182036 | 18 | 352 | 3.2 | 12.9 | 0.23 | 2.31 | 2.31 | 97 | 1025.0 |
| 20260905181551 | 18 | 119 | 1.6 | 6.4 | 1.32 | 2.29 | 2.29 | 98 | 1024.8 |
| 20260905181036 | 18 | 0 | 1.6 | 8.0 | 1.93 | 2.29 | 2.29 | 98 | 1024.9 |
| 20260905180537 | 17 | 217 | 1.6 | 8.0 | 1.96 | 2.29 | 2.29 | 98 | 1025.1 |
| 20260905180050 | 17 | 0 | 1.6 | 4.8 | 2.06 | 2.29 | 2.29 | 98 | 1025.2 |
| 20260905175540 | 17 | 115 | 0.0 | 8.0 | 2.18 | 2.29 | 2.29 | 98 | 1025.3 |
| 20260905175036 | 16 | 165 | 0.0 | 8.0 | 2.21 | 2.29 | 2.29 | 98 | 1025.3 |
| 20260905174557 | 16 | 54 | 1.6 | 8.0 | 2.29 | 2.29 | 2.29 | 98 | 1025.4 |
| 20260905174036 | 15 | 65 | 0.0 | 8.0 | 2.29 | 2.29 | 2.29 | 97 | 1025.6 |
| 20260905173537 | 15 | 0 | 0.0 | 4.8 | 2.29 | 2.29 | 2.29 | 95 | 1025.9 |
| 20260905173054 | 15 | 44 | 1.6 | 16.1 | 2.29 | 2.29 | 2.29 | 94 | 1025.9 |
| 20260905172801 | 15 | 0 | 3.2 | 16.1 | 2.29 | 2.29 | 2.29 | 91 | 1026.0 |
| 20260905164036 | 19 | 0 | 0.0 | 3.2 | 0.00 | 0.00 | 0.00 | 91 | 1025.6 |
| 20260905163538 | 19 | 109 | 0.0 | 3.2 | 0.00 | 0.00 | 0.00 | 90 | 1025.7 |
| 20260905163056 | 20 | 152 | 0.0 | 3.2 | 0.00 | 0.00 | 0.00 | 91 | 1025.9 |
| 20260905162537 | 20 | 0 | 0.0 | 3.2 | 0.00 | 0.00 | 0.00 | 92 | 1026.2 |
| 20260905162047 | 20 | 0 | 0.0 | 3.2 | 0.00 | 0.00 | 0.00 | 91 | 1026.2 |
| 20260905161555 | 20 | 0 | 0.0 | 0.0 | 0.00 | 0.00 | 0.00 | 91 | 1026.3 |
| 20260905161036 | 20 | 0 | 0.0 | 0.0 | 0.00 | 0.00 | 0.00 | 91 | 1026.3 |
| 20260905160536 | 20 | 0 | 0.0 | 0.0 | 0.00 | 0.00 | 0.00 | 90 | 1026.1 |
| 20260905160048 | 20 | 0 | 0.0 | 0.0 | 0.00 | 0.00 | 0.00 | 90 | 1026.0 |
| 20260905155536 | 20 | 0 | 0.0 | 0.0 | 0.00 | 0.00 | 0.00 | 89 | 1026.0 |
| 20260905155035 | 20 | 0 | 0.0 | 0.0 | 0.00 | 0.00 | 0.00 | 89 | 1026.1 |
| 20260905154557 | 20 | 0 | 0.0 | 0.0 | 0.00 | 0.00 | 0.00 | 90 | 1026.1 |
| 20260905154037 | 20 | 0 | 0.0 | 1.6 | 0.00 | 0.00 | 0.00 | 89 | 1026.1 |
| 20260905153536 | 20 | 0 | 0.0 | 1.6 | 0.00 | 0.00 | 0.00 | 89 | 1026.1 |
| 20260905153107 | 20 | 0 | 0.0 | 1.6 | 0.00 | 0.00 | 0.00 | 88 | 1026.1 |
| 20260905152557 | 20 | 0 | 0.0 | 1.6 | 0.00 | 0.00 | 0.00 | 88 | 1026.0 |
| 20260905152037 | 20 | 0 | 0.0 | 3.2 | 0.00 | 0.00 | 0.00 | 89 | 1026.0 |
| 20260905151552 | 20 | 0 | 0.0 | 3.2 | 0.00 | 0.00 | 0.00 | 87 | 1025.9 |
| 20260905151035 | 20 | 218 | 0.0 | 6.4 | 0.00 | 0.00 | 0.00 | 87 | 1025.8 |
| 20260905150536 | 20 | 0 | 0.0 | 6.4 | 0.00 | 0.00 | 0.00 | 87 | 1025.9 |
| 20260905150047 | 20 | 0 | 1.6 | 6.4 | 0.00 | 0.00 | 0.00 | 87 | 1026.0 |
| 20260905145537 | 19 | 242 | 1.6 | 6.4 | 0.00 | 0.00 | 0.00 | 87 | 1026.0 |
| 20260905145038 | 19 | 259 | 1.6 | 3.2 | 0.00 | 0.00 | 0.00 | 87 | 1026.0 |
| 20260905144557 | 19 | 299 | 0.0 | 6.4 | 0.00 | 0.00 | 0.00 | 87 | 1026.0 |
| 20260905144036 | 19 | 327 | 0.0 | 6.4 | 0.00 | 0.00 | 0.00 | 87 | 1026.1 |
| 20260905143537 | 19 | 262 | 1.6 | 8.0 | 0.00 | 0.00 | 0.00 | 88 | 1026.2 |
| 20260905143056 | 19 | 202 | 1.6 | 8.0 | 0.00 | 0.00 | 0.00 | 88 | 1026.2 |
| 20260905142536 | 18 | 251 | 3.2 | 6.4 | 0.00 | 0.00 | 0.00 | 88 | 1026.2 |
| 20260905142036 | 18 | 139 | 0.0 | 6.4 | 0.00 | 0.00 | 0.00 | 89 | 1026.2 |
| 20260905141559 | 18 | 238 | 0.0 | 4.8 | 0.00 | 0.00 | 0.00 | 89 | 1026.2 |
| 20260905141040 | 18 | 159 | 1.6 | 9.7 | 0.00 | 0.00 | 0.00 | 89 | 1026.2 |
| 20260905140537 | 18 | 0 | 3.2 | 9.7 | 0.00 | 0.00 | 0.00 | 89 | 1026.2 |
| 20260905140046 | 18 | 264 | 3.2 | 9.7 | 0.00 | 0.00 | 0.00 | 89 | 1026.3 |
| 20260905135537 | 18 | 217 | 1.6 | 8.0 | 0.00 | 0.00 | 0.00 | 88 | 1026.2 |
| 20260905135037 | 18 | 252 | 1.6 | 4.8 | 0.00 | 0.00 | 0.00 | 89 | 1026.2 |
| 20260905134549 | 18 | 262 | 1.6 | 6.4 | 0.00 | 0.00 | 0.00 | 89 | 1026.3 |
| 20260905134038 | 18 | 242 | 1.6 | 9.7 | 0.00 | 0.00 | 0.00 | 89 | 1026.3 |
| 20260905133538 | 18 | 237 | 3.2 | 9.7 | 0.00 | 0.00 | 0.00 | 89 | 1026.4 |
| 20260905133055 | 18 | 265 | 3.2 | 9.7 | 0.00 | 0.00 | 0.00 | 89 | 1026.3 |
| 20260905132536 | 18 | 200 | 3.2 | 9.7 | 0.00 | 0.00 | 0.00 | 89 | 1026.2 |
| 20260905132040 | 18 | 284 | 1.6 | 8.0 | 0.00 | 0.00 | 0.00 | 89 | 1026.3 |
| 20260905131613 | 18 | 301 | 3.2 | 8.0 | 0.00 | 0.00 | 0.00 | 89 | 1026.3 |
| 20260905131036 | 18 | 132 | 1.6 | 6.4 | 0.00 | 0.00 | 0.00 | 89 | 1026.4 |
| 20260905130537 | 18 | 300 | 3.2 | 6.4 | 0.00 | 0.00 | 0.00 | 88 | 1026.4 |
| 20260905130100 | 18 | 300 | 3.2 | 9.7 | 0.00 | 0.00 | 0.00 | 88 | 1026.5 |
| 20260905125536 | 18 | 0 | 3.2 | 11.3 | 0.00 | 0.00 | 0.00 | 88 | 1026.5 |
| 20260905125037 | 18 | 340 | 3.2 | 14.5 | 0.00 | 0.00 | 0.00 | 88 | 1026.5 |
| 20260905124558 | 18 | 233 | 4.8 | 14.5 | 0.00 | 0.00 | 0.00 | 89 | 1026.5 |
| 20260905124037 | 18 | 275 | 3.2 | 6.4 | 0.00 | 0.00 | 0.00 | 89 | 1026.4 |
| 20260905123537 | 18 | 284 | 3.2 | 6.4 | 0.00 | 0.00 | 0.00 | 89 | 1026.4 |
| 20260905123056 | 18 | 269 | 3.2 | 6.4 | 0.00 | 0.00 | 0.00 | 90 | 1026.4 |
| 20260905122537 | 18 | 273 | 3.2 | 6.4 | 0.00 | 0.00 | 0.00 | 90 | 1026.3 |
| 20260905122036 | 18 | 292 | 3.2 | 4.8 | 0.00 | 0.00 | 0.00 | 90 | 1026.1 |
| 20260905121548 | 17 | 285 | 3.2 | 6.4 | 0.00 | 0.00 | 0.00 | 90 | 1026.2 |
| 20260905121036 | 17 | 274 | 3.2 | 6.4 | 0.00 | 0.00 | 0.00 | 90 | 1026.2 |
| 20260905120537 | 17 | 277 | 1.6 | 4.8 | 0.00 | 0.00 | 0.00 | 89 | 1026.2 |
| 20260905120046 | 17 | 273 | 3.2 | 4.8 | 0.00 | 0.00 | 0.00 | 89 | 1026.1 |
| 20260905115538 | 17 | 273 | 1.6 | 4.8 | 0.00 | 0.00 | 0.00 | 89 | 1026.1 |
| 20260905115036 | 17 | 273 | 1.6 | 4.8 | 0.00 | 0.00 | 0.00 | 89 | 1026.0 |
| 20260905114556 | 18 | 273 | 1.6 | 4.8 | 0.00 | 0.00 | 0.00 | 88 | 1026.0 |
| 20260905114039 | 18 | 273 | 1.6 | 4.8 | 0.00 | 0.00 | 0.00 | 88 | 1026.0 |
| 20260905113536 | 18 | 273 | 1.6 | 6.4 | 0.00 | 0.00 | 0.00 | 87 | 1025.9 |
| 20260905113050 | 18 | 301 | 1.6 | 6.4 | 0.00 | 0.00 | 0.00 | 86 | 1025.8 |
| 20260905112537 | 18 | 255 | 1.6 | 9.7 | 0.00 | 0.00 | 0.00 | 86 | 1025.7 |
| 20260905112037 | 18 | 271 | 1.6 | 9.7 | 0.00 | 0.00 | 0.00 | 86 | 1025.6 |
| 20260905111548 | 18 | 248 | 1.6 | 8.0 | 0.00 | 0.00 | 0.00 | 85 | 1025.6 |
| 20260905111037 | 18 | 28 | 1.6 | 4.8 | 0.00 | 0.00 | 0.00 | 85 | 1025.6 |
| 20260905110536 | 17 | 302 | 1.6 | 4.8 | 0.00 | 0.00 | 0.00 | 85 | 1025.4 |
| 20260905110044 | 17 | 293 | 1.6 | 4.8 | 0.00 | 0.00 | 0.00 | 86 | 1025.4 |
| 20260905105537 | 17 | 293 | 1.6 | 4.8 | 0.00 | 0.00 | 0.00 | 87 | 1025.2 |
| 20260905105037 | 17 | 293 | 1.6 | 4.8 | 0.00 | 0.00 | 0.00 | 87 | 1025.2 |
| 20260905104557 | 17 | 293 | 1.6 | 4.8 | 0.00 | 0.00 | 0.00 | 87 | 1025.2 |
| 20260905104036 | 17 | 290 | 3.2 | 4.8 | 0.00 | 0.00 | 0.00 | 88 | 1025.1 |
| 20260905103540 | 17 | 290 | 3.2 | 4.8 | 0.00 | 0.00 | 0.00 | 88 | 1025.1 |
| 20260905103054 | 17 | 290 | 3.2 | 4.8 | 0.00 | 0.00 | 0.00 | 89 | 1025.1 |
| 20260905102536 | 17 | 290 | 1.6 | 4.8 | 0.00 | 0.00 | 0.00 | 89 | 1025.0 |
| 20260905102037 | 17 | 290 | 3.2 | 4.8 | 0.00 | 0.00 | 0.00 | 89 | 1025.0 |
| 20260905101600 | 17 | 290 | 1.6 | 4.8 | 0.00 | 0.00 | 0.00 | 90 | 1025.1 |
| 20260905101036 | 17 | 290 | 1.6 | 4.8 | 0.00 | 0.00 | 0.00 | 90 | 1025.1 |
| 20260905100536 | 17 | 290 | 1.6 | 4.8 | 0.00 | 0.00 | 0.00 | 90 | 1025.0 |
| 20260905100057 | 17 | 290 | 1.6 | 4.8 | 0.00 | 0.00 | 0.00 | 90 | 1025.1 |
| 20260905095537 | 17 | 290 | 1.6 | 4.8 | 0.00 | 0.00 | 0.00 | 90 | 1024.9 |
| 20260905095036 | 17 | 290 | 1.6 | 4.8 | 0.00 | 0.00 | 0.00 | 91 | 1025.0 |
| 20260905094558 | 17 | 290 | 1.6 | 4.8 | 0.00 | 0.00 | 0.00 | 91 | 1025.0 |
| 20260905094036 | 17 | 290 | 1.6 | 4.8 | 0.00 | 0.00 | 0.00 | 91 | 1025.1 |
| 20260905093539 | 17 | 290 | 1.6 | 4.8 | 0.00 | 0.00 | 0.00 | 91 | 1025.1 |
| 20260905093051 | 17 | 290 | 1.6 | 4.8 | 0.00 | 0.00 | 0.00 | 91 | 1025.0 |
| 20260905092538 | 17 | 290 | 1.6 | 4.8 | 0.00 | 0.00 | 0.00 | 91 | 1025.0 |
| 20260905092036 | 17 | 289 | 1.6 | 4.8 | 0.00 | 0.00 | 0.00 | 91 | 1025.1 |
| 20260905091559 | 17 | 293 | 1.6 | 4.8 | 0.00 | 0.00 | 0.00 | 92 | 1025.1 |
| 20260905091036 | 17 | 288 | 3.2 | 4.8 | 0.00 | 0.00 | 0.00 | 92 | 1025.1 |
| 20260905090536 | 17 | 301 | 1.6 | 4.8 | 0.00 | 0.00 | 0.00 | 92 | 1025.1 |